Theta_e
306 305 305 305 304 302 301 298 297 296 297 296 293 294 295 298 300 297 298 300 299 298 295 295 294 296 295 293 292 294 293 289 291 291 282 282 283 288 287 300 296 285 290 299
305 306 305 305 305 302 301 301 295 295 295 296 294 293 296 297 301 299 299 300 300 298 296 298 295 295 295 293 293 294 295 293 292 294 289 286 288 286 285 282 282 288 299 303
306 306 306 305 305 303 301 297 298 295 295 293 296 296 297 298 298 301 299 300 298 298 298 295 297 295 296 294 295 299 297 290 296 302 297 289 287 285 288 291 291 295 302 303
305 306 306 306 305 304 301 299 298 296 299 298 295 296 298 298 299 300 300 300 298 299 299 300 298 295 294 294 296 298 297 296 293 292 292 291 290 290 290 293 298 300 304 301
307 306 306 306 306 305 302 302 299 292 294 296 297 298 296 298 298 300 301 302 300 300 303 301 299 298 297 300 291 295 289 301 292 293 291 293 295 293 292 294 296 297 300 301
305 306 307 307 307 305 303 304 298 299 298 293 297 298 298 298 298 299 300 300 300 300 300 301 300 300 299 300 296 295 292 292 294 302 293 296 301 300 298 291 292 298 298 300
303 303 303 304 304 304 305 303 299 301 304 300 299 298 297 298 298 299 299 299 301 299 299 300 300 300 299 297 292 296 293 293 300 303 299 303 300 290 300 300 299 294 298 301
300 300 303 302 302 302 302 300 300 297 305 303 300 299 299 298 298 300 299 298 298 300 300 302 303 302 303 301 300 296 300 300 303 304 302 301 301 291 296 297 300 298 295 297
297 297 301 303 302 301 302 297 296 294 301 304 302 300 299 300 299 298 299 299 300 299 301 303 303 304 296 298 301 301 301 302 303 303 305 305 302 293 288 293 301 300 298 299
297 297 297 297 298 300 300 296 295 293 297 298 302 302 300 299 301 302 299 299 299 299 301 303 304 305 298 301 299 302 301 302 302 303 305 300 292 283 284 298 301 297 299 300
296 296 298 297 298 298 297 296 295 293 296 297 299 301 301 298 300 302 300 302 300 300 303 304 304 305 300 299 295 299 301 301 302 302 304 304 286 291 300 297 282 281 287 291
295 295 296 295 296 296 298 297 296 294 294 296 296 298 298 299 300 301 299 300 301 302 302 303 302 305 302 303 305 288 301 301 302 301 302 295 289 290 284 280 286 286 287 281
294 294 295 295 294 296 295 294 295 293 293 293 294 296 296 297 298 299 300 297 297 297 295 297 298 301 300 305 305 300 294 296 300 301 297 296 290 284 284 282 284 280 280 282
294 294 294 294 294 294 295 294 294 294 292 293 292 292 293 294 294 296 297 297 295 295 294 298 298 297 297 295 297 298 298 298 299 300 298 298 297 294 291 288 286 287 287 290
292 293 293 293 293 293 293 294 294 293 292 287 286 288 288 287 289 292 295 295 296 296 296 296 296 296 297 297 296 297 279 280 291 296 277 278 291 281 283 290 288 286 287 285
292 292 291 292 293 293 292 285 291 293 293 292 286 282 281 282 285 286 285 286 291 293 294 292 289 290 295 296 295 274 272 271 271 275 272 273 277 278 275 278 278 278 279 279
291 292 291 291 291 291 287 286 291 291 292 291 287 279 278 277 280 279 281 285 285 289 290 291 288 290 291 288 292 268 268 267 267 269 268 275 272 273 272 272 272 272 270 270
292 291 291 291 291 291 290 289 291 291 289 289 284 280 280 276 278 279 273 277 280 286 287 281 282 281 281 282 268 267 267 265 266 265 265 268 269 271 270 270 271 271 270 269
291 291 291 290 289 288 287 286 286 285 281 281 275 271 277 275 276 275 277 274 278 274 278 278 277 269 268 267 265 265 265 264 264 263 264 267 269 269 269 268 269 268 266 264
290 289 286 280 283 285 286 282 280 277 275 275 275 274 275 273 275 275 274 273 273 277 272 271 268 266 264 262 260 260 260 259 260 261 264 265 265 266 266 265 265 265 264 262
288 277 283 282 282 281 276 275 275 274 274 272 272 271 271 272 274 275 274 278 275 278 273 275 265 265 265 263 261 259 259 259 259 260 262 262 263 264 264 265 263 261 262 261
283 280 277 277 271 273 273 268 271 272 272 269 267 268 267 267 269 272 276 278 278 279 274 274 266 266 262 258 259 260 260 262 262 262 262 262 262 262 263 263 262 262 262 261
280 272 267 269 265 271 268 266 269 269 267 264 266 269 268 268 269 273 275 277 277 275 274 270 266 265 261 261 258 262 262 262 262 262 262 261 261 261 261 262 261 261 260 260
267 267 269 264 263 262 263 263 261 264 260 261 257 259 262 262 268 271 275 276 275 274 270 267 262 260 264 263 263 262 263 262 261 260 260 259 259 259 260 260 260 260 259 259
264 266 265 263 262 258 256 251 256 257 251 257 259 260 262 265 269 274 271 271 269 268 267 265 264 264 264 263 263 263 263 263 262 261 259 258 259 257 258 259 259 259 259 258
262 261 263 260 260 260 256 250 254 252 252 253 258 260 264 266 265 267 265 266 265 264 260 264 263 263 262 262 262 262 262 263 263 261 260 259 259 258 258 259 259 259 259 258
262 262 256 257 257 262 258 255 258 256 258 260 255 260 262 258 259 261 261 261 258 260 262 262 259 257 258 259 260 260 261 262 262 262 260 260 260 259 257 256 259 259 259 259
Wind_Speed
28 27 26 25 24 22 22 8 2 8 24 3 2 4 6 3 4 3 5 3 3 8 10 7 6 9 5 8 10 10 5 5 4 7 3 2 2 6 6 4 7 3 2 8
31 29 29 29 30 31 17 3 2 4 4 5 5 3 4 4 4 5 7 7 6 4 8 2 7 7 1 11 11 11 10 2 2 5 4 3 5 6 4 4 3 8 4 8
34 33 32 32 34 36 21 3 3 0 2 0 3 5 5 6 5 4 5 4 4 4 5 5 7 7 3 7 6 4 9 3 8 11 7 6 5 7 10 5 3 6 19 20
35 36 36 37 40 43 25 3 5 5 6 9 8 5 6 13 10 5 7 4 8 8 6 3 5 3 2 2 5 1 6 6 4 4 3 3 6 6 17 21 26 12 26 20
43 39 39 39 42 50 23 7 5 0 2 4 17 16 10 11 9 8 6 9 11 11 17 13 10 9 4 6 2 5 1 10 3 5 3 6 6 14 17 25 19 27 26 29
32 32 35 40 38 48 13 19 8 7 10 6 10 11 16 17 14 9 16 15 10 10 20 13 1 6 6 6 10 11 8 6 4 20 6 5 8 31 21 10 12 20 20 35
29 27 31 33 33 27 25 13 7 7 15 13 21 13 17 21 20 22 8 14 9 4 7 5 4 3 7 8 8 11 8 5 4 7 4 10 14 2 14 27 27 21 23 30
14 13 31 29 29 30 26 14 4 4 11 14 14 18 19 12 17 21 16 11 7 9 6 1 4 4 7 14 21 16 14 9 6 7 9 13 21 5 6 9 22 24 25 27
8 11 11 13 32 32 27 20 19 2 4 11 11 10 20 15 10 10 16 16 10 6 5 5 8 7 5 5 4 15 21 19 11 6 9 15 27 9 8 6 13 12 22 25
7 8 10 10 10 10 6 8 21 4 2 2 8 5 7 7 10 3 4 7 7 13 7 9 8 9 8 7 7 5 7 10 19 17 15 7 7 4 3 7 9 9 19 22
8 6 4 2 5 6 7 2 17 10 2 2 4 6 5 4 8 6 4 3 2 6 8 6 5 6 8 5 6 9 13 11 9 12 12 19 8 2 15 7 1 2 2 4
4 4 4 3 5 4 3 2 16 20 1 2 3 6 10 1 1 6 3 1 4 6 5 5 3 5 5 9 11 1 7 10 7 10 7 1 9 2 2 1 3 2 1 0
5 5 4 3 3 7 8 3 5 6 0 1 1 4 8 16 16 13 3 1 2 3 1 2 0 4 1 4 7 7 2 4 4 4 2 2 1 1 0 1 3 1 1 2
4 4 3 3 4 4 7 4 4 4 1 1 3 3 3 3 5 14 14 7 3 2 2 2 3 3 4 3 3 4 6 2 4 3 4 5 1 3 6 6 7 5 5 5
4 4 4 3 3 3 7 7 7 7 2 2 2 5 6 9 6 6 16 17 10 5 4 3 3 3 4 2 0 3 5 3 1 1 4 3 6 15 14 5 4 7 5 2
4 3 4 5 5 6 5 3 1 8 5 2 2 2 6 14 10 8 4 1 2 3 2 3 3 3 6 2 1 5 7 5 4 5 11 10 12 4 12 10 9 4 5 3
4 3 3 4 8 5 4 3 2 4 6 1 2 3 4 11 5 2 2 3 1 2 2 2 2 2 2 2 9 7 8 7 9 5 10 2 5 6 9 8 9 8 8 8
3 4 8 11 12 10 5 7 4 6 4 2 1 3 4 11 3 3 2 2 2 1 1 1 0 2 2 1 6 9 7 8 2 11 9 9 11 7 7 8 5 3 4 3
7 13 14 8 6 3 6 12 16 17 11 3 3 3 3 8 2 2 3 2 1 1 1 1 2 3 4 3 9 10 10 5 9 12 10 4 6 6 6 6 4 4 2 2
10 4 7 3 7 11 3 8 4 6 4 4 3 3 3 3 3 3 2 1 2 1 3 1 4 2 2 3 4 6 7 6 5 5 7 10 10 10 11 6 5 4 2 1
3 3 2 3 10 7 4 4 5 4 4 3 2 2 2 2 2 3 1 3 1 1 3 3 2 2 2 6 6 5 5 6 6 6 8 7 9 10 10 8 4 3 4 1
7 14 8 6 7 4 6 3 4 5 1 4 2 3 2 4 1 1 2 3 1 4 1 3 2 1 4 5 5 7 6 8 7 9 8 9 9 9 9 7 4 2 3 5
6 6 5 4 5 11 6 5 4 4 4 2 3 6 2 4 1 3 2 3 2 1 3 2 2 1 4 6 4 8 13 11 11 11 11 11 11 10 7 7 4 4 5 5
4 5 7 4 5 1 3 4 3 4 1 3 1 2 1 2 3 2 3 2 3 2 2 1 2 3 8 5 5 5 11 10 8 9 12 11 10 10 9 7 7 6 6 6
4 4 3 3 3 1 3 2 2 3 1 2 3 2 1 3 3 3 4 5 3 3 1 1 4 9 8 10 10 10 10 9 9 12 9 12 12 11 12 9 8 9 8 9
4 5 4 1 3 4 3 0 3 1 1 1 2 1 2 2 1 4 2 2 2 2 2 5 7 8 9 10 10 12 16 15 15 14 14 15 13 13 12 10 11 12 11 11
5 1 1 3 3 4 3 3 3 1 2 1 2 4 4 3 4 4 0 3 3 4 7 6 5 6 8 10 14 15 17 16 16 16 15 16 15 13 12 9 16 14 15 15
Wind_Direction
226 219 211 204 190 175 170 150 176 162 157 132 193 183 198 234 223 166 241 145 130 176 166 169 211 214 243 156 146 164 187 117 166 199 262 157 153 208 163 158 235 230 164 259
226 221 215 205 191 177 156 154 120 173 199 184 208 252 251 240 193 191 191 212 204 167 166 170 200 196 218 159 163 164 179 213 74 339 360 360 214 200 159 119 91 203 192 255
225 221 214 208 196 183 167 134 150 358 236 87 200 166 212 223 218 224 177 183 115 118 174 242 199 203 195 192 201 188 155 158 176 226 198 133 186 205 199 160 180 201 233 254
225 223 217 210 199 187 180 163 211 182 192 222 199 184 199 205 216 221 178 218 192 170 201 199 200 204 38 21 228 176 166 238 177 234 152 143 191 180 194 209 225 208 253 235
223 221 219 216 206 191 194 178 160 85 175 174 190 206 207 208 210 164 214 226 198 191 225 203 198 166 182 191 55 160 291 241 134 273 154 180 250 234 211 214 225 237 253 261
202 203 210 209 204 192 207 203 165 160 188 172 180 211 216 217 204 222 227 213 212 210 232 229 270 186 173 187 173 181 166 158 118 258 131 110 283 239 215 202 214 212 227 246
225 228 233 230 219 223 221 195 146 184 223 199 213 200 197 215 214 223 216 217 202 216 94 80 69 195 200 205 231 174 166 147 157 256 113 219 250 242 212 218 232 219 248 257
258 263 225 229 230 229 253 181 178 172 221 213 218 217 220 210 224 231 231 223 194 121 71 198 233 220 232 235 227 211 199 190 212 222 220 275 293 200 151 171 251 225 226 249
266 263 249 235 226 229 224 200 203 160 217 217 201 197 207 217 211 224 236 238 144 114 189 191 213 211 190 218 250 222 206 215 209 188 224 227 252 186 168 111 267 174 209 231
252 245 246 259 261 245 225 165 199 145 253 247 178 177 183 183 189 210 165 201 184 173 199 213 221 228 177 206 187 161 180 206 219 224 236 266 245 193 147 164 254 180 192 219
227 226 193 208 248 237 229 145 199 176 200 250 221 175 156 129 195 207 176 125 172 177 211 210 197 215 200 180 196 175 185 181 208 226 235 242 146 31 193 221 255 233 257 216
189 197 211 266 285 288 189 144 204 206 208 323 308 284 277 277 113 204 175 201 177 208 207 190 189 213 187 199 233 35 211 203 200 196 213 239 195 248 29 105 113 303 79 61
152 150 158 189 223 190 203 166 131 139 258 333 306 222 260 253 247 249 189 179 251 243 257 138 210 264 331 204 230 260 256 28 252 333 323 30 102 318 184 139 141 149 95 126
153 155 155 145 157 162 175 152 177 131 77 256 280 288 250 283 265 229 220 221 199 152 212 248 206 214 172 218 214 274 269 171 203 269 314 319 278 236 175 169 158 155 189 178
166 197 174 170 162 154 176 184 192 209 138 189 269 327 342 8 337 244 218 224 230 235 243 218 228 199 187 196 107 191 19 9 309 302 48 296 305 346 342 278 193 146 153 171
183 196 210 194 173 150 136 27 250 212 183 15 341 359 19 1 1 19 10 45 198 197 216 223 242 212 168 215 197 59 43 10 335 292 325 273 272 313 354 328 340 355 114 107
128 146 116 136 144 131 87 146 39 130 159 89 306 324 352 349 332 18 11 330 275 198 219 237 235 260 230 190 252 13 345 327 306 338 325 232 45 329 325 341 344 4 52 54
83 106 117 115 117 117 74 50 103 136 100 160 230 288 39 9 332 338 335 9 355 339 294 13 157 11 358 88 2 339 330 315 234 344 326 278 290 303 336 343 320 316 64 63
98 116 117 102 49 44 60 98 79 73 56 80 62 28 311 348 325 288 330 67 340 302 167 206 79 352 60 331 334 333 332 318 297 310 295 286 325 326 334 324 335 335 346 66
116 103 54 30 349 344 152 23 31 26 21 34 58 342 320 7 340 300 345 49 245 238 251 54 65 87 250 251 269 278 294 282 307 334 336 340 331 332 327 321 312 299 245 116
44 55 67 32 31 46 34 46 43 351 42 22 351 71 316 328 316 290 220 313 267 256 260 128 63 52 320 317 317 297 292 289 277 251 269 278 281 295 297 293 291 222 165 157
89 113 92 44 31 36 70 9 359 44 18 344 35 299 231 289 296 267 280 267 257 250 206 90 77 173 278 308 300 309 316 324 311 304 296 300 299 301 294 272 259 221 175 164
72 53 51 35 325 42 59 354 340 347 349 344 340 327 286 321 292 264 265 254 244 343 43 65 131 261 299 304 297 317 324 321 322 319 309 308 312 306 288 292 270 219 178 166
64 61 34 75 356 58 175 188 213 258 153 332 336 270 180 295 315 263 272 286 29 51 67 24 263 268 323 313 310 313 322 318 308 309 306 292 290 295 298 285 267 241 226 215
75 61 68 71 225 257 229 239 333 269 182 32 356 326 96 295 304 348 355 9 42 34 101 272 320 325 322 324 324 319 316 312 307 305 300 292 288 276 278 269 242 225 229 219
74 59 84 340 65 313 345 27 268 249 19 54 51 3 20 326 315 19 347 347 259 255 244 308 308 306 310 310 312 308 306 305 301 295 290 289 277 264 269 267 248 237 236 237
63 10 27 123 111 178 221 169 250 163 66 52 93 42 239 320 17 332 301 206 230 279 299 295 275 267 284 292 298 298 302 301 296 288 287 285 287 271 253 257 259 252 248 249